Zurück zum Katalog

STARLINK-11610

AktivKommunikationVLEO
NORAD 63135·PAYLOAD·🇺🇸 United States

Gestartet Mar 3, 2025 von Cape Canaveral Space Force Station

Loading…

Nächste Überflüge (nächste 24 Stunden)

TLE

AktuellSource: CelesTrak SupGP

Epoche: Sep 15, 2026, 02:55 UTC

1 63135C 25043D   26258.12201389 -.00043627  00000+0 -33886-3 0  2583
2 63135  43.0005 189.1374 0001469 273.4046  30.4697 15.70859837    14

Verfolge STARLINK-11610 in Echtzeit mit AllMySat

Download on the App Store